This demonstration page uses our WeatherBlox Daily Observations layout. Learn more.

Left ArrowRight Arrow

47.50024, -111.30081

Hourly Observations for May 18, 2017

Temp ( °F °C ) Dew Point ( °F °C ) Humidity (%) Winds ( mph kmh ) Pressure ( in mb ) Visibility ( mi km ) Precip ( " mm )
12:53 am 00:53 Clear 42 5.6 38 3.3 85 85 NE 12 19 30.13 1020 10 16 0.00 0.00
1:53 am 01:53 Cloudy 41 5 38 3.3 89 89 NNE 12 19 30.14 1021 10 16 0.00 0.00
2:15 am 02:15 Cloudy 41 5 38 3.3 89 89 NNE 12 19 30.12 1020 10 16 0.00 0.00
2:53 am 02:53 Cloudy 41 5 38 3.3 89 89 NE 12 19 30.15 1021 10 16 0.00 0.00
3:42 am 03:42 Cloudy 40 4.4 37 2.8 89 89 NNE 9 15 30.18 1022 10 16 0.00 0.00
3:53 am 03:53 Cloudy 41 5 37 2.8 86 86 NE 10 17 30.17 1022 10 16 0.00 0.00
4:01 am 04:01 Cloudy 41 5 37 2.8 86 86 NE 12 19 30.18 1022 10 16 0.00 0.00
4:44 am 04:44 Cloudy 40 4.4 37 2.8 89 89 NE 10 17 30.18 1022 10 16 0.00 0.00
4:53 am 04:53 Cloudy 40 4.4 37 2.8 89 89 ENE 10 17 30.19 1023 10 16 0.00 0.00
5:24 am 05:24 Cloudy 40 4.4 37 2.8 89 89 ENE 13 20 30.21 1023 10 16 0.00 0.00
5:53 am 05:53 Mostly Cloudy 39 3.9 36 2.2 89 89 NE 8 13 30.20 1023 10 16 0.00 0.00
6:12 am 06:12 Cloudy 40 4.4 37 2.8 89 89 ENE 9 15 30.21 1023 10 16 0.00 0.00
6:39 am 06:39 Cloudy 40 4.4 37 2.8 89 89 ENE 10 17 30.21 1023 10 16 0.00 0.00
6:53 am 06:53 Cloudy 40 4.4 37 2.8 89 89 NE 9 15 30.22 1023 10 16 0.00 0.00
7:53 am 07:53 Cloudy 41 5 38 3.3 89 89 ENE 6 9 30.25 1024 10 16 0.00 0.00
8:53 am 08:53 Cloudy 44 6.7 39 3.9 83 83 N 5 7 30.24 1024 10 16 0.00 0.00
9:49 am 09:49 Mostly Cloudy 46 8 39 4 76 76 VRB 6 9 30.15 1021 10 16 0.00 0.00
9:53 am 09:53 Mostly Cloudy 46 7.8 39 3.9 77 77 ESE 7 11 30.24 1024 10 16 0.00 0.00
10:53 am 10:53 Mostly Cloudy 49 9.4 39 3.9 69 69 ENE 5 7 30.22 1023 10 16 0.00 0.00
11:03 am 11:03 Mostly Cloudy 49 9.4 39 3.9 69 69 E 9 15 30.15 1021 10 16 0.00 0.00
11:15 am 11:15 Mostly Cloudy 50 10 39 3.9 66 66 ESE 8 13 30.12 1020 10 16 0.00 0.00
11:53 am 11:53 Cloudy 51 10.6 38 3.3 61 61 E 6 9 30.22 1023 10 16 0.00 0.00
12:53 pm 12:53 Cloudy 51 10.6 37 2.8 59 59 E 6 9 30.22 1023 10 16 0.00 0.00
1:53 pm 13:53 Mostly Cloudy 54 12.2 38 3.3 55 55 E 7 11 30.20 1023 10 16 0.00 0.00
2:53 pm 14:53 Sunny 56 13.3 36 2.2 47 47 E 9 15 30.18 1022 10 16 0.00 0.00
3:53 pm 15:53 Mostly Sunny 58 14.4 37 2.8 46 46 VRB 6 9 30.15 1021 10 16 0.00 0.00
4:53 pm 16:53 Partly Cloudy 58 14.4 32 0 38 38 ENE 5 7 30.16 1021 10 16 0.00 0.00
5:53 pm 17:53 Cloudy 56 13.3 30 -1.1 37 37 NNE 3 6 30.15 1021 10 16 0.00 0.00
6:53 pm 18:53 Cloudy 57 13.9 32 0 39 39 E 3 6 30.14 1021 10 16 0.00 0.00
7:53 pm 19:53 Mostly Sunny 54 12.2 37 2.8 53 53 NE 7 11 30.16 1021 10 16 0.00 0.00
8:53 pm 20:53 Mostly Sunny 49 9.4 37 2.8 64 64 ENE 6 9 30.16 1021 10 16 0.00 0.00
9:53 pm 21:53 Clear 47 8.3 36 2.2 66 66 E 9 15 30.16 1021 10 16 0.00 0.00
10:53 pm 22:53 Clear 46 7.8 36 2.2 68 68 SSE 10 17 30.16 1021 10 16 0.00 0.00
11:53 pm 23:53 Clear 44 6.7 32 0 63 63 SSW 9 15 30.15 1021 10 16 0.00 0.00

Powered by AerisWeather